GEFSMA_850_meantemp_006.txt.gz
Temperature
20 19 19 19 18 18 18 18 18 19 19 19 19 19 19 19 19 19 19 19 19 19 19 19 19 19 19 19 18 19 19 18 18 18 18 18 17 17 17 16 16 16 16
19 19 19 19 19 19 19 18 18 18 18 19 19 19 19 19 19 19 19 19 19 19 19 19 19 19 19 18 18 18 19 19 18 18 18 18 18 17 17 17 17 16 16
19 19 19 19 19 19 19 18 18 18 18 18 18 18 18 19 19 19 19 19 19 19 19 19 19 19 19 19 18 18 18 18 18 18 18 18 18 18 17 17 17 17 17
18 18 19 19 19 19 18 18 18 18 18 18 18 18 19 19 19 19 19 19 19 19 19 19 19 18 19 19 19 18 18 18 18 18 18 18 18 18 18 18 17 17 17
18 19 19 19 18 18 18 18 18 18 18 18 18 18 19 19 19 19 19 19 19 19 19 19 19 18 18 18 18 18 18 18 18 18 18 18 18 17 17 17 17 17 17
19 18 18 18 18 18 18 18 18 18 18 18 18 18 18 19 19 19 19 19 19 19 19 19 19 18 18 18 18 18 18 18 18 18 18 18 18 18 17 17 17 17 16
18 18 18 18 18 18 18 18 18 18 18 18 18 18 18 18 19 19 19 19 19 19 19 18 18 18 18 18 18 18 18 17 17 18 18 18 18 18 18 17 17 17 16
18 18 18 18 18 18 18 18 17 17 18 18 17 17 17 18 19 19 19 18 18 18 18 18 18 18 18 18 18 18 18 18 18 18 18 18 17 18 18 18 17 17 17
17 17 17 17 17 17 17 17 17 17 17 17 17 16 16 16 17 17 17 17 17 18 18 18 18 18 18 18 18 17 18 18 17 18 18 17 17 18 18 18 17 17 17
17 17 16 16 16 16 16 16 16 16 16 16 16 16 16 15 15 16 17 17 17 17 17 18 17 17 17 17 17 17 17 17 17 17 17 17 17 17 17 17 17 17 17
16 16 16 16 16 16 16 16 16 16 16 16 16 15 15 15 15 15 15 16 16 16 17 17 17 17 17 17 17 17 17 17 16 17 17 17 16 17 17 17 17 17 17
16 16 16 16 15 15 15 15 15 15 15 15 15 15 15 15 15 15 15 15 16 16 16 16 17 16 16 16 16 16 16 16 16 16 16 16 16 16 16 16 17 17 17
15 15 15 15 15 15 15 15 15 15 15 15 15 15 15 14 15 15 15 15 15 16 16 16 16 16 16 16 16 16 16 16 16 16 16 16 16 16 16 16 16 16 16
14 14 14 15 15 15 15 15 15 15 14 14 14 14 14 14 14 15 15 15 15 15 15 14 15 15 15 15 15 15 15 16 16 16 16 16 16 16 16 16 16 16 16
13 13 13 14 14 14 14 14 14 14 14 14 14 14 13 14 14 14 14 14 14 14 14 14 14 14 14 14 15 15 15 15 15 15 15 15 15 15 15 15 15 15 15
12 12 13 13 13 14 14 14 14 13 13 14 13 13 13 13 13 14 14 14 14 14 14 14 14 14 14 14 14 14 14 15 15 15 15 15 15 15 15 14 14 14 14
12 12 12 12 13 13 13 13 13 13 13 13 13 13 13 13 13 13 13 14 14 14 14 13 13 13 14 14 13 13 14 14 14 15 15 15 14 14 14 14 14 13 13
12 12 12 12 12 13 13 13 13 13 13 13 12 13 13 13 13 13 13 13 13 14 13 13 13 13 13 13 13 13 13 13 14 14 14 14 13 13 13 13 13 13 13
12 12 12 12 12 12 13 13 13 12 12 12 12 12 12 13 13 13 13 13 13 13 13 13 13 13 13 13 13 13 13 13 13 13 13 13 12 12 13 13 13 13 13
12 12 12 12 12 12 12 12 12 12 12 12 12 12 12 13 13 13 13 13 13 13 13 13 13 13 12 12 13 13 12 12 12 12 12 12 12 12 12 12 12 12 12
12 12 12 12 12 12 11 11 11 11 12 12 12 12 12 12 12 12 12 13 13 13 13 13 13 12 12 12 12 12 12 12 12 12 12 12 12 12 12 12 12 12 12
12 11 12 12 11 11 11 11 11 11 11 12 12 12 12 12 12 12 12 12 12 12 12 12 12 12 11 11 11 12 11 11 11 11 12 12 12 12 11 11 11 11 11
11 11 12 12 11 11 11 11 11 11 11 12 12 12 12 12 12 11 11 11 12 12 12 12 12 11 11 11 11 11 11 11 10 10 11 11 12 11 11 11 11 11 11
11 11 12 12 12 11 11 11 11 11 11 11 11 11 12 11 11 11 11 11 11 11 11 11 11 11 11 11 11 11 11 11 10 10 10 11 11 11 10 10 10 10 10
11 11 12 12 11 11 11 11 11 11 11 11 11 11 12 12 11 11 11 11 11 11 11 11 11 11 10 10 10 10 10 10 10 10 10 10 10 11 10 10 10 10 10
11 12 12 11 11 11 11 11 11 11 11 11 11 11 11 11 11 11 11 11 11 11 11 11 11 10 10 10 10 10 10 10 9 9 9 9 9 10 10 9 9 9 9

GEFSMA_850_meantemp_012.txt.gz
Temperature
19 19 18 18 18 18 18 18 18 18 18 18 18 18 18 18 18 18 18 18 18 18 18 18 18 18 18 18 18 18 18 17 17 17 18 18 18 17 17 17 16 16 16
18 18 18 18 18 18 18 18 18 18 18 18 18 18 18 18 18 18 18 19 19 19 19 19 18 18 18 18 18 18 18 18 17 17 17 17 18 17 17 17 17 16 16
18 18 18 18 18 18 18 18 18 18 18 18 18 18 18 18 18 18 19 19 19 19 19 19 19 19 19 18 18 18 18 18 17 17 17 17 17 17 17 17 17 17 16
18 18 18 18 18 18 18 18 18 18 18 18 18 18 18 18 18 18 18 18 19 19 19 19 19 19 19 18 18 18 18 18 18 17 17 17 17 17 17 17 17 17 17
17 17 17 17 17 17 17 17 17 18 18 18 18 18 18 18 18 18 18 18 18 18 18 19 19 19 19 18 18 18 18 18 18 17 17 17 17 17 17 17 17 17 17
17 17 17 17 16 16 17 17 17 17 17 17 17 17 18 18 18 18 18 18 18 18 18 18 19 19 19 18 18 18 18 18 17 17 17 17 17 17 17 17 17 17 17
17 17 16 16 16 16 16 16 16 17 17 17 17 17 17 17 17 18 18 18 18 18 18 19 19 19 19 19 18 17 17 17 17 17 17 17 17 17 17 17 17 17 17
16 16 16 16 16 16 16 16 16 16 16 16 16 16 16 17 17 18 18 18 18 18 18 18 18 18 18 18 18 17 17 17 17 17 17 17 17 17 17 17 17 17 17
16 16 16 16 16 16 16 16 16 16 16 16 16 16 15 16 16 17 17 17 17 17 18 18 18 17 17 17 17 17 17 17 17 17 17 17 17 17 17 17 17 17 17
15 15 15 16 16 16 16 16 16 15 15 15 15 16 15 15 15 15 16 16 16 16 16 16 17 17 17 17 17 17 17 17 17 17 17 17 17 17 17 17 17 17 17
15 15 15 15 15 15 15 15 15 15 15 15 15 15 15 15 15 14 14 15 16 16 16 16 16 16 16 16 16 16 16 16 17 17 17 17 17 17 17 17 17 17 17
15 15 14 14 14 14 14 14 14 14 14 15 15 15 15 14 14 14 14 15 15 15 15 15 15 15 15 15 15 15 16 16 16 16 16 16 16 16 16 16 16 17 17
14 14 14 14 13 13 13 13 14 14 14 14 14 14 14 14 14 14 14 14 14 14 14 14 15 15 14 14 14 15 15 15 16 16 16 16 16 16 16 16 16 16 16
13 13 13 13 13 13 13 13 13 14 14 14 14 14 14 14 14 14 14 14 14 13 13 13 13 14 14 14 14 14 15 15 15 15 15 15 15 16 16 16 16 16 16
13 13 13 13 13 13 13 13 13 14 14 14 14 14 14 14 14 14 14 14 14 13 13 13 13 13 13 14 14 14 14 15 15 15 15 15 15 15 15 15 15 15 15
13 13 13 13 13 13 13 13 13 13 13 13 13 13 13 14 13 13 13 14 14 14 13 13 13 13 13 13 13 14 14 14 15 15 15 14 14 14 14 14 14 14 14
13 13 12 12 13 13 13 13 13 13 13 13 13 13 13 13 13 13 13 13 13 14 14 12 12 12 13 13 13 13 14 14 14 14 14 13 13 13 13 13 13 13 14
13 13 12 12 12 12 12 13 13 13 13 13 13 13 13 13 13 13 13 13 13 13 14 13 12 13 13 13 13 13 13 13 13 13 12 12 12 12 12 13 13 13 13
13 12 12 12 12 12 12 12 12 12 12 12 12 12 12 12 12 12 12 12 13 12 13 13 13 13 12 12 12 13 13 12 12 12 12 12 12 12 12 12 12 12 13
13 12 12 12 12 12 12 12 12 12 12 12 12 12 12 12 12 12 12 12 12 12 13 13 13 12 12 12 12 12 12 12 12 12 12 12 12 12 12 12 12 12 12
12 12 12 12 12 12 11 11 11 11 11 11 11 11 11 12 12 12 12 12 12 13 13 13 12 12 12 12 12 12 12 11 11 11 11 11 11 11 11 11 11 11 11
12 12 12 12 12 11 11 11 11 11 11 11 11 11 11 11 12 12 12 12 12 13 13 12 12 12 11 11 11 11 11 11 11 11 11 11 11 11 11 10 10 11 11
12 12 12 12 11 11 11 11 11 11 11 10 11 11 11 11 12 12 12 12 12 12 12 12 12 11 11 11 11 11 11 10 10 10 11 11 10 10 10 10 10 10 10
12 12 12 11 11 11 11 11 11 11 11 11 11 11 11 11 11 11 11 11 11 11 11 11 11 11 11 10 10 10 10 10 10 10 10 10 10 9 9 9 9 9 9
11 12 12 11 11 11 11 11 11 11 11 11 11 11 11 11 11 11 11 11 11 11 11 11 11 10 10 10 10 10 10 10 9 9 9 9 9 9 9 8 8 8 9
11 11 11 11 11 11 11 11 11 11 11 11 11 11 11 11 11 11 11 11 11 11 11 10 10 10 10 10 9 9 9 9 9 8 8 8 8 8 8 8 8 8 8

GEFSMA_850_meantemp_018.txt.gz
Temperature
18 18 18 18 18 18 18 18 18 17 17 17 17 18 18 18 18 18 18 18 19 19 19 18 18 18 18 18 18 18 18 18 18 17 17 17 17 17 17 17 17 17 17
18 18 18 18 18 18 18 18 18 18 18 18 18 18 18 18 18 18 18 18 18 19 19 19 19 18 18 18 18 18 18 18 18 18 18 17 17 17 17 17 17 17 17
18 18 18 18 18 18 18 18 18 18 18 18 18 18 18 18 18 18 18 18 18 18 19 19 19 19 19 19 18 18 18 18 18 18 18 18 17 17 17 17 17 17 17
17 17 17 17 17 17 18 18 18 18 18 18 18 18 18 18 18 18 18 18 18 18 18 18 19 19 19 19 19 19 18 18 18 18 18 18 18 18 18 17 17 17 17
17 17 17 17 17 17 17 17 17 17 17 17 17 17 18 18 18 18 18 18 18 18 18 18 18 19 19 19 19 19 19 19 19 19 18 18 18 18 18 18 17 17 17
16 16 16 16 16 16 16 16 16 16 17 17 17 18 18 18 18 18 18 18 18 18 18 18 18 18 19 19 20 20 19 19 19 19 19 19 18 18 18 18 18 17 17
16 16 16 16 15 16 16 16 16 16 16 16 16 17 18 18 18 18 18 18 18 18 18 18 18 18 18 19 19 20 20 19 19 19 19 19 19 18 18 18 18 17 17
16 16 15 15 15 15 15 15 15 15 16 16 16 17 18 19 19 18 18 18 18 18 18 18 18 18 18 18 18 19 19 19 19 19 19 18 18 18 18 18 18 17 17
16 15 15 15 15 15 15 15 15 15 15 16 16 16 18 19 20 20 19 18 18 18 18 18 18 17 17 17 18 18 18 19 19 18 18 18 18 18 18 18 17 17 17
15 15 15 15 15 15 14 14 14 14 14 15 15 16 16 17 18 19 19 18 17 17 17 17 17 17 17 17 17 17 18 18 18 18 17 17 17 17 17 17 17 17 17
15 14 14 14 14 14 14 14 14 14 14 14 14 15 15 15 15 16 18 18 18 17 16 16 16 16 16 16 16 16 17 17 17 17 17 17 17 17 17 17 17 17 17
14 14 14 14 14 14 14 14 14 14 14 13 14 14 15 15 16 16 17 17 17 17 16 16 16 16 16 16 15 16 16 16 16 16 16 16 16 16 17 17 17 17 17
15 14 14 14 14 14 14 14 14 14 14 14 14 14 14 15 15 16 16 17 17 16 15 15 15 15 15 15 15 15 15 15 15 15 15 15 16 16 16 16 16 16 16
15 14 14 14 14 14 13 13 13 13 13 14 14 14 14 14 14 15 15 15 15 15 15 14 14 14 14 14 14 14 14 14 15 15 15 15 15 15 16 16 16 16 16
14 14 14 14 14 13 13 14 13 13 13 13 14 14 14 14 14 14 14 15 14 15 14 14 14 14 14 14 14 14 14 14 14 14 14 14 14 15 15 15 15 15 15
15 14 14 14 13 13 13 13 13 13 13 13 14 14 14 14 14 14 14 14 14 14 14 13 13 13 13 13 13 13 13 14 14 14 14 14 14 14 14 14 15 15 15
15 14 14 13 13 13 13 13 13 13 13 13 13 13 13 14 14 14 14 14 14 14 14 13 13 12 13 13 13 13 13 13 13 13 13 13 13 13 13 13 14 14 14
14 14 13 13 13 13 13 13 13 13 13 13 13 13 13 13 13 14 14 14 14 14 13 12 12 12 12 12 12 12 12 12 12 12 12 12 12 12 12 13 13 13 13
14 13 13 13 13 12 12 12 12 12 12 13 13 13 13 13 13 13 13 13 13 13 13 12 11 11 11 11 11 11 11 11 12 12 12 12 12 12 12 12 12 12 13
13 13 13 12 12 12 12 12 12 12 12 12 12 12 12 12 12 13 12 13 13 12 12 12 11 11 11 11 11 11 11 11 11 11 11 11 11 11 11 12 12 12 12
12 12 12 12 12 12 12 12 12 12 12 12 12 12 12 12 12 12 12 12 12 12 11 11 11 11 11 11 12 12 12 11 11 11 11 11 10 10 10 11 11 11 11
11 12 12 12 12 12 12 12 12 11 11 11 12 12 12 12 12 12 12 12 11 11 12 12 12 12 11 12 12 12 12 12 12 11 11 11 10 10 10 10 10 10 10
11 11 12 12 12 12 12 12 12 11 11 11 11 11 11 11 11 11 11 11 11 11 12 12 12 12 11 11 12 12 12 13 12 11 11 11 10 9 9 9 9 9 9
10 10 11 11 11 12 12 12 12 11 11 11 11 11 11 11 11 11 11 11 11 11 11 11 11 11 11 11 11 11 11 11 11 10 11 11 10 9 9 8 8 8 9
9 10 10 11 11 11 11 12 12 11 11 11 11 11 11 11 11 11 11 11 11 11 11 11 11 11 11 11 11 11 11 11 11 10 10 11 10 10 9 8 8 8 8
8 9 9 10 10 10 11 11 11 11 11 11 11 11 11 11 11 11 11 11 11 11 11 11 11 10 10 10 10 10 11 12 11 10 10 10 10 10 9 9 8 8 8

GEFSMA_850_meantemp_024.txt.gz
Temperature
19 18 18 19 19 19 18 18 18 18 18 18 18 18 18 18 19 19 19 19 19 19 18 19 19 19 19 19 19 19 19 19 18 18 18 18 17 17 17 17 17 17 17
19 18 18 18 18 18 18 18 18 18 18 18 18 18 18 18 19 19 19 19 19 19 19 19 19 19 19 19 19 19 19 19 19 18 18 18 18 18 18 18 18 18 18
19 18 18 18 18 18 18 18 18 18 18 18 18 18 18 18 19 19 19 19 19 19 19 19 19 19 19 19 19 19 19 19 19 19 18 18 18 18 18 18 18 18 18
18 18 18 18 18 18 18 18 18 17 17 17 17 18 18 18 18 19 19 19 19 19 19 19 19 19 19 19 19 19 19 19 19 19 19 19 19 19 18 18 18 18 18
18 18 17 17 17 17 17 17 17 17 17 17 17 17 18 18 18 18 18 19 19 19 19 19 19 19 19 19 19 19 19 19 19 19 19 19 19 19 19 18 18 18 18
18 17 17 17 17 17 17 17 17 17 16 17 17 17 17 18 18 18 18 19 19 19 19 19 19 19 19 19 19 19 19 19 19 19 19 19 19 19 19 19 19 18 18
18 17 17 16 16 16 16 16 16 16 16 16 16 17 17 18 18 18 19 19 19 19 19 19 19 19 19 19 19 18 18 18 19 19 19 19 19 19 19 19 19 18 18
17 17 17 16 16 16 16 16 16 15 15 16 16 16 17 17 18 19 19 19 19 19 19 19 19 19 19 19 19 18 18 18 18 18 19 19 19 19 19 19 18 18 18
18 17 17 16 16 16 15 15 15 15 15 15 15 15 16 17 18 18 19 19 20 19 19 19 19 19 19 19 18 18 18 18 18 18 18 18 19 19 19 18 18 18 18
18 17 17 16 16 16 16 15 15 15 15 15 15 15 15 15 16 16 17 18 19 19 19 19 19 19 19 18 18 18 18 18 17 17 18 18 18 18 18 18 18 17 17
18 17 17 16 16 16 16 15 16 15 15 15 14 14 15 15 15 15 16 17 18 18 19 19 19 19 18 18 17 17 17 17 17 17 17 17 17 17 17 17 17 17 17
18 17 17 16 16 16 16 16 15 15 15 15 14 14 14 14 15 15 15 16 16 17 18 18 18 18 18 18 17 17 17 17 17 17 16 16 16 16 17 17 17 16 16
17 17 17 16 16 16 16 16 15 15 15 15 15 14 14 14 14 14 15 15 16 16 17 17 17 17 17 17 17 17 17 16 16 16 16 16 16 16 16 16 16 16 16
17 17 17 17 16 16 16 15 15 15 15 15 15 14 14 14 14 14 14 15 15 16 16 16 16 16 16 17 16 16 16 15 15 15 15 15 15 15 15 15 15 16 16
16 16 16 16 15 15 15 15 15 15 15 15 14 14 14 14 14 14 14 14 14 15 15 15 15 15 16 16 15 15 15 14 14 14 14 14 14 14 15 15 15 15 15
15 15 15 15 15 15 15 15 14 14 14 14 14 14 14 14 14 14 14 15 15 14 14 15 15 15 15 14 14 14 14 14 14 14 14 14 14 14 14 14 14 15 15
14 14 14 14 14 14 14 14 14 14 14 14 14 14 14 14 14 14 14 14 14 14 14 14 14 14 14 14 13 13 13 13 13 13 13 13 13 13 13 13 14 14 14
13 14 13 14 14 14 14 14 14 14 14 14 14 14 14 14 14 14 14 14 14 14 14 14 13 13 13 13 13 13 13 13 12 12 12 12 12 12 13 13 13 13 13
12 13 13 13 13 13 14 14 14 14 14 14 14 14 14 14 14 14 14 14 14 14 14 14 13 13 12 12 12 12 12 12 12 11 11 12 12 12 12 12 12 13 13
11 11 12 12 13 13 13 13 13 13 14 14 13 13 13 14 14 14 14 14 14 14 13 13 12 12 12 11 12 11 11 11 11 11 11 11 11 12 12 12 12 12 12
10 10 10 11 12 12 12 13 13 13 13 13 13 13 13 13 13 13 13 13 13 13 13 12 12 11 11 11 11 11 11 11 11 11 11 11 11 11 11 11 11 11 11
9 9 9 10 11 11 12 12 12 13 13 13 13 13 13 13 13 13 13 13 13 13 12 12 11 11 11 11 11 11 11 11 10 11 11 10 10 11 10 10 10 10 10
9 9 9 9 10 10 11 12 12 12 13 13 13 13 12 12 12 12 12 12 12 12 12 12 11 11 11 11 11 11 11 11 11 11 11 10 10 10 10 10 10 10 10
9 9 9 9 9 10 10 11 11 12 12 12 12 12 12 12 12 12 12 11 11 11 11 11 11 11 11 11 11 11 12 11 11 11 11 10 10 10 10 9 9 9 9
9 8 9 9 9 9 10 10 10 11 11 12 12 12 12 12 11 11 11 11 11 11 11 11 11 11 11 11 11 12 12 12 11 11 11 10 10 10 9 9 9 9 8
8 8 8 9 9 9 9 10 10 10 11 11 11 12 12 12 11 11 11 11 11 11 11 11 11 11 11 11 11 12 12 12 12 11 11 11 10 10 9 9 9 9 8

GEFSMA_850_meantemp_030.txt.gz
Temperature
19 18 18 18 18 18 18 18 18 18 18 18 18 18 18 18 18 18 18 18 18 18 18 18 18 18 18 18 18 18 18 18 18 18 18 18 18 18 18 17 17 17 17
18 18 18 18 18 18 18 18 18 18 18 18 18 18 17 17 17 17 18 18 18 18 18 18 18 18 18 18 18 19 19 19 18 18 18 18 18 18 18 17 17 17 17
18 18 18 18 17 17 17 17 17 17 17 17 17 17 17 17 17 17 17 18 18 18 18 18 18 18 18 18 18 18 19 19 19 19 18 18 18 18 18 17 17 17 17
18 18 18 17 17 17 17 17 17 17 17 17 17 17 17 17 17 17 17 17 18 18 18 18 18 18 18 18 18 18 18 18 18 18 18 18 18 18 18 18 18 17 17
18 18 18 17 17 17 17 17 17 17 17 17 17 17 17 17 17 17 17 18 18 18 18 18 18 18 18 18 18 18 18 18 18 18 18 18 18 18 18 18 18 18 18
19 18 18 17 17 17 17 17 16 16 16 16 16 16 17 17 17 17 17 17 18 18 18 18 18 18 18 18 18 18 18 18 18 18 18 18 18 18 18 18 18 18 18
19 18 18 18 17 17 17 16 16 16 16 16 16 16 17 17 17 17 17 17 17 17 17 17 17 18 18 18 18 18 18 18 18 18 18 18 18 18 18 18 18 18 18
19 18 18 18 17 17 17 16 16 16 16 16 15 15 16 17 17 17 17 17 17 17 17 17 17 17 18 18 18 18 18 18 17 17 17 17 17 18 18 18 18 18 18
19 18 18 18 18 17 17 17 16 16 16 15 15 15 14 14 15 17 17 17 17 17 17 17 18 18 18 18 18 18 18 17 17 17 17 17 17 17 17 18 18 18 18
18 18 18 18 18 18 17 17 16 16 16 15 15 15 14 14 14 14 16 17 16 17 17 17 17 18 18 18 18 18 18 18 17 17 17 17 17 17 17 17 17 17 17
18 18 18 18 18 18 17 17 17 16 16 16 15 15 15 14 14 14 14 16 16 16 16 17 17 18 18 18 18 18 17 17 17 17 17 17 17 17 17 17 17 17 17
17 17 17 17 17 17 17 17 17 16 16 16 15 15 15 14 14 13 13 14 15 16 16 16 17 17 17 18 17 17 17 17 17 17 17 17 17 17 17 17 17 17 17
16 17 17 17 17 17 17 17 17 16 16 16 15 15 15 15 14 14 13 14 14 15 15 16 16 16 17 17 17 17 17 17 17 17 17 17 16 16 16 16 16 16 16
15 15 16 16 16 16 16 16 16 16 16 16 15 15 15 15 14 14 14 13 13 14 14 15 15 16 16 16 16 16 16 16 16 16 16 16 16 16 16 16 16 16 16
13 13 14 14 15 15 15 15 16 16 16 15 15 15 15 15 14 14 14 13 13 13 13 14 14 15 15 15 16 16 16 16 15 15 15 15 15 15 15 15 15 15 15
12 12 13 13 13 14 14 14 15 15 15 15 15 15 15 15 14 14 14 14 13 13 13 13 14 14 14 14 14 15 15 15 15 15 15 15 14 15 15 14 14 14 15
11 11 11 12 12 13 13 13 14 14 14 15 15 14 15 15 14 14 14 14 14 13 13 13 13 13 13 13 13 14 14 14 14 14 14 14 14 14 14 14 14 14 14
10 10 10 11 11 12 12 12 13 13 14 14 14 14 14 14 14 14 14 14 14 14 13 13 13 13 13 13 13 13 13 13 13 13 13 13 13 13 13 13 13 13 13
10 10 10 10 10 11 11 11 12 12 13 13 14 14 14 14 14 14 14 14 14 14 13 13 13 13 13 12 12 12 12 12 12 12 12 12 12 12 12 12 12 12 13
10 10 9 9 10 10 10 10 11 11 12 12 13 13 13 14 14 14 14 14 14 14 13 13 13 13 12 12 12 11 11 11 11 11 11 12 12 12 12 12 12 12 12
9 9 9 9 9 9 9 10 10 11 11 12 12 13 13 13 13 14 14 14 14 13 13 13 13 12 12 12 11 11 11 11 10 11 11 11 11 11 11 11 11 11 11
9 9 9 9 9 9 9 9 9 10 10 11 11 12 13 13 13 14 14 14 14 13 13 13 12 12 12 12 11 11 11 11 10 10 11 10 10 10 10 10 10 10 10
8 8 9 9 9 9 9 9 9 9 9 10 11 11 12 13 13 13 14 14 13 13 13 13 13 12 12 12 11 11 11 11 11 10 10 10 10 10 10 10 9 9 9
8 8 8 8 8 9 9 9 9 9 9 9 10 11 11 12 13 13 13 13 13 13 12 12 13 13 13 12 12 11 11 11 10 10 10 10 9 9 9 9 8 8 8
7 7 8 8 8 8 8 9 9 9 9 9 10 10 11 12 12 12 12 12 12 12 12 12 12 12 12 11 11 11 10 10 9 9 9 10 9 9 8 8 8 8 8
7 7 7 7 8 8 8 8 8 8 9 9 9 10 10 11 12 12 12 12 12 12 11 11 11 11 11 11 11 11 11 10 10 9 9 10 9 9 8 8 8 8 7

GEFSMA_850_meantemp_036.txt.gz
Temperature
19 18 18 18 18 18 17 17 17 17 17 17 17 18 18 18 18 18 18 18 18 18 18 18 18 18 18 18 17 17 17 17 17 17 17 17 17 17 17 17 17 17 17
18 18 18 18 18 18 17 17 17 17 17 17 17 17 17 18 18 18 18 18 18 18 18 18 18 18 18 18 18 17 17 17 17 17 17 17 17 17 17 17 17 17 17
17 17 18 18 18 17 17 17 17 17 17 17 17 17 17 17 17 17 17 18 18 18 18 18 18 17 18 18 18 18 17 17 17 17 17 17 17 17 17 17 17 16 16
17 17 17 18 17 17 17 17 17 17 17 17 17 17 17 17 17 17 17 17 17 18 18 18 18 18 18 18 18 18 18 18 17 17 17 17 17 17 17 17 17 16 16
17 17 17 17 17 17 17 17 16 16 16 16 16 16 16 16 17 17 17 17 17 17 18 18 18 18 18 18 18 18 18 18 18 18 17 17 17 17 17 17 17 17 16
17 17 17 17 17 17 17 16 16 16 16 16 16 16 16 16 16 16 17 17 17 17 17 17 18 18 18 18 18 18 18 18 18 18 18 17 17 17 17 17 17 17 17
17 17 17 17 17 17 17 16 16 16 16 16 16 16 16 16 16 16 16 17 17 17 17 17 17 17 18 18 18 18 18 18 18 18 18 18 18 17 17 17 17 17 17
17 17 17 17 17 17 17 16 16 16 16 15 15 16 16 16 16 16 16 16 16 16 16 17 17 17 17 18 18 18 18 18 18 18 18 18 18 18 17 17 17 17 17
17 17 17 17 17 17 17 17 16 16 16 15 15 15 16 16 16 16 16 16 16 16 16 16 17 17 17 18 18 18 18 18 18 18 18 18 18 18 17 17 17 17 17
17 17 17 17 17 17 17 17 16 16 16 16 15 15 15 15 15 15 15 16 16 16 16 16 17 17 17 17 18 18 18 18 18 17 18 17 17 17 17 17 17 17 17
16 16 16 16 16 16 16 16 16 16 16 16 15 15 15 15 15 15 15 16 16 16 16 16 16 17 17 17 17 17 18 18 18 17 17 17 17 17 17 17 17 17 17
15 15 16 16 16 16 16 16 16 16 16 16 15 15 15 15 15 14 14 15 15 16 16 16 16 16 16 17 17 17 17 17 17 17 17 17 17 17 17 17 17 16 17
14 14 14 15 15 15 15 15 15 16 16 16 16 15 15 15 14 14 14 14 14 15 15 15 16 16 16 16 16 17 17 17 17 17 17 17 17 17 16 16 16 16 16
12 13 13 13 13 14 14 15 15 15 15 15 15 15 15 15 14 14 14 13 13 14 14 15 15 15 15 16 16 16 16 16 17 17 17 16 16 16 16 16 16 16 16
11 12 12 12 12 13 13 14 14 14 14 15 15 15 15 15 14 14 14 13 13 13 13 14 14 14 14 15 15 15 16 16 16 16 16 16 16 16 16 16 16 16 16
11 11 11 11 11 12 12 12 13 13 14 14 14 14 14 14 14 14 14 13 13 13 13 13 13 13 13 14 14 14 15 15 15 16 15 15 15 15 15 15 15 15 15
10 10 10 10 10 11 11 11 12 12 12 13 13 14 14 14 14 14 14 13 13 13 13 13 13 13 13 13 13 13 14 14 14 14 14 15 15 15 15 15 15 15 15
10 10 10 10 10 10 10 11 11 11 11 12 12 13 13 13 13 14 14 13 13 13 13 13 13 13 13 13 12 12 12 13 13 13 13 14 14 14 14 14 14 14 14
10 10 10 10 10 10 10 10 10 10 11 11 11 12 12 13 13 13 13 13 13 13 13 13 13 13 12 12 12 12 12 12 12 12 13 13 13 13 13 13 13 13 13
10 10 10 9 9 9 9 9 9 9 10 10 10 11 11 12 12 13 13 13 13 13 13 13 12 12 12 12 12 12 11 11 12 12 12 12 12 12 12 12 13 13 13
9 9 9 9 9 9 9 9 9 9 9 9 10 10 10 11 12 12 13 13 13 13 13 12 12 12 12 12 12 11 11 11 11 11 11 11 11 12 12 12 12 12 12
9 9 9 9 9 9 9 9 9 9 9 9 9 9 10 10 11 12 12 13 13 13 13 13 12 12 12 12 12 12 11 11 10 10 11 11 11 11 11 11 11 11 11
8 8 8 8 8 8 8 8 9 8 8 9 9 9 9 10 11 11 12 12 12 13 13 13 13 13 12 12 12 12 12 11 11 10 10 10 10 10 10 10 10 10 10
7 7 7 8 8 8 8 8 8 8 8 8 9 9 9 10 10 11 11 12 12 13 13 13 13 13 13 13 13 12 12 11 10 10 10 10 9 10 9 9 9 9 9
6 6 6 7 7 7 8 8 8 8 8 8 8 9 9 9 10 10 11 11 12 12 12 12 13 12 12 12 12 12 11 11 10 9 9 10 9 9 9 8 8 8 8
5 5 6 6 7 7 7 7 8 8 8 8 8 8 8 9 9 10 10 11 11 12 12 12 12 12 12 12 12 12 12 11 10 9 9 10 9 9 7 7 7 7 7

GEFSMA_850_meantemp_042.txt.gz
Temperature
18 18 18 18 18 18 18 18 17 17 17 17 17 17 17 17 17 17 18 18 18 18 18 18 18 18 18 17 17 17 17 17 17 17 17 17 17 17 17 17 17 17 17
17 17 17 17 17 17 18 17 17 17 17 17 17 17 17 17 17 17 17 18 18 18 18 18 18 18 18 17 17 17 17 17 17 17 17 17 17 17 17 17 17 17 17
17 17 17 17 17 17 17 17 17 17 17 17 17 17 17 17 17 17 17 17 18 18 18 18 18 18 18 18 17 17 17 17 17 17 17 17 17 17 17 16 17 17 17
16 17 17 17 17 17 17 17 17 17 17 17 17 17 17 17 17 17 17 17 17 17 17 18 18 18 18 18 18 17 17 17 17 17 17 17 17 17 17 17 17 17 17
16 16 16 17 17 17 17 17 17 17 17 17 17 17 17 17 17 17 17 17 17 17 17 17 18 18 18 18 18 17 17 17 17 17 17 17 17 17 17 17 17 17 17
15 16 16 16 16 16 17 17 17 16 17 16 17 17 17 17 17 17 17 17 17 17 17 17 17 17 18 18 18 18 18 18 18 18 18 17 17 17 17 17 17 17 17
15 15 15 15 16 16 16 16 16 16 16 16 16 17 17 17 17 17 17 17 17 17 17 17 17 17 17 17 18 18 18 18 18 18 18 17 17 17 17 17 17 17 17
15 15 15 15 15 16 16 16 16 16 16 16 16 17 18 18 17 17 17 17 17 17 17 17 17 16 17 17 17 18 18 18 18 18 18 18 17 17 17 17 17 17 17
14 14 15 15 15 15 16 16 16 15 16 16 16 17 18 20 20 18 17 17 16 17 17 17 17 16 16 17 17 17 17 18 17 17 18 18 18 17 18 18 17 17 17
14 14 14 15 15 15 15 15 15 15 15 16 16 16 17 18 18 19 17 16 16 16 16 17 17 16 16 16 16 17 17 17 17 17 17 17 17 18 18 18 17 17 17
14 14 14 14 15 15 15 15 15 15 15 15 16 16 16 16 16 17 19 17 16 16 16 16 16 16 16 16 16 16 17 17 17 17 17 17 17 18 18 17 17 17 17
13 13 13 13 14 14 14 14 15 15 15 15 15 16 16 16 16 17 18 17 17 17 16 16 16 16 16 16 16 17 17 17 17 17 17 17 17 17 17 17 17 17 17
12 12 12 12 13 13 13 13 14 14 14 15 15 15 16 16 17 17 17 18 17 17 16 15 15 15 15 15 16 16 17 17 17 17 17 17 17 17 17 17 17 16 16
12 12 11 11 12 12 12 12 13 13 14 14 14 14 15 15 16 16 16 17 17 17 16 16 15 15 15 15 16 16 16 17 17 17 17 17 17 17 17 17 17 16 16
11 11 11 11 11 11 11 11 12 12 13 13 14 14 14 15 15 15 15 16 17 18 18 16 15 15 15 15 15 15 16 16 17 17 17 17 17 17 17 17 16 16 16
10 10 10 10 10 10 10 10 11 11 12 12 13 13 14 14 14 14 15 15 15 16 17 17 15 14 14 14 15 15 15 16 16 16 16 16 16 16 16 16 16 16 16
9 9 10 10 10 10 10 10 10 10 11 11 12 12 13 13 14 14 14 14 15 15 16 16 15 14 14 14 14 14 15 15 15 16 16 16 16 16 16 16 16 16 16
8 9 9 9 9 10 10 10 10 10 10 10 11 11 12 12 13 13 14 14 14 14 15 15 14 14 13 13 13 14 14 14 15 15 15 15 15 15 15 15 15 15 15
8 8 8 9 9 9 9 9 9 10 10 10 10 10 11 11 12 13 13 13 14 14 14 14 14 14 13 13 13 13 13 13 14 14 14 14 14 14 15 15 15 15 14
7 7 8 8 8 9 9 9 9 9 9 9 10 10 10 11 11 12 12 13 13 13 13 14 14 14 13 13 12 12 12 12 12 13 13 13 13 14 14 14 14 14 14
6 7 7 7 8 8 9 9 9 9 9 9 9 9 10 10 10 11 11 12 12 13 13 13 14 13 13 12 12 12 12 12 12 12 12 12 12 13 13 13 13 13 13
6 6 6 7 7 8 9 9 9 9 9 9 9 9 9 9 10 10 10 11 12 12 13 13 13 13 13 13 12 12 12 12 11 11 11 11 11 11 12 12 12 12 12
5 5 6 6 7 7 8 8 9 9 9 9 9 9 9 10 9 9 10 10 11 11 12 12 13 13 13 13 12 12 12 12 12 12 11 10 10 10 11 11 12 12 12
5 5 5 6 6 7 7 8 8 8 8 9 9 9 9 9 9 9 9 10 10 11 11 12 12 13 13 13 13 13 12 12 11 11 10 10 9 10 10 10 10 11 11
5 5 5 5 6 6 6 7 8 7 8 8 9 9 9 9 9 9 9 9 10 10 11 11 11 12 12 12 12 12 11 11 11 10 10 10 9 9 9 9 9 9 10
5 5 5 5 6 6 6 7 7 7 8 8 8 9 9 9 9 9 9 9 9 10 11 11 11 11 12 12 12 12 12 11 11 10 9 10 9 9 8 8 8 8 8

GEFSMA_850_meantemp_048.txt.gz
Temperature
18 18 18 18 18 18 18 18 18 18 18 18 18 18 18 18 18 18 19 18 18 18 18 18 19 19 18 18 18 17 17 17 18 18 18 18 18 17 17 17 17 17 17
18 18 18 18 18 18 18 18 18 18 18 18 18 18 18 18 18 18 18 18 18 18 18 18 19 19 18 18 18 18 17 17 17 17 17 18 18 17 17 17 17 17 17
17 17 17 17 17 18 18 18 17 17 18 17 17 18 18 18 18 18 18 18 18 18 18 18 18 18 18 18 18 18 18 17 17 17 17 17 17 17 17 17 17 17 17
17 17 17 17 17 17 17 17 17 17 17 17 17 17 17 18 18 18 18 18 18 18 18 18 18 18 18 18 18 18 18 18 17 17 17 17 17 17 17 17 17 17 17
16 16 16 16 16 16 16 16 16 16 16 17 17 17 17 17 18 17 18 18 18 18 18 18 18 18 18 18 18 18 18 18 18 17 18 18 17 17 17 17 17 17 17
16 16 16 16 16 16 16 16 16 16 16 16 16 17 17 17 17 17 17 17 18 17 17 18 18 18 18 18 18 18 18 18 18 18 18 18 17 17 17 17 17 17 17
15 15 15 15 15 15 15 15 15 15 15 16 16 16 17 17 17 17 17 17 18 17 17 17 17 18 18 18 18 18 18 18 18 18 18 18 18 17 17 17 17 17 17
15 14 15 15 15 15 15 15 15 15 15 15 15 16 16 17 17 17 18 18 18 17 17 17 17 17 17 17 18 18 18 18 18 18 18 18 18 18 18 17 17 17 17
14 14 14 14 14 14 14 14 14 14 15 15 15 16 16 17 18 18 18 18 18 18 18 18 18 18 17 17 17 17 17 17 17 17 17 17 17 18 18 17 17 17 17
14 14 14 14 14 14 14 14 14 14 14 15 15 16 16 17 17 18 18 18 18 18 18 18 18 18 18 17 17 17 17 17 17 17 17 17 17 17 17 17 17 17 17
13 14 13 13 13 13 13 14 14 14 14 14 15 15 16 16 17 17 17 18 18 18 18 18 18 18 17 17 17 17 17 17 17 17 17 17 17 17 17 17 17 17 17
13 13 13 13 13 13 13 13 13 14 14 14 14 15 15 16 16 17 17 18 18 18 18 18 18 18 17 17 17 17 17 17 17 17 17 17 17 17 17 17 17 17 17
12 13 13 13 12 12 12 12 13 13 13 13 14 14 15 15 16 17 17 18 18 18 18 17 17 17 17 17 17 17 17 17 17 17 17 17 17 17 17 17 17 17 17
11 12 12 12 12 12 12 12 12 12 12 13 13 14 14 15 15 16 17 17 18 18 18 17 17 17 17 17 16 16 17 17 17 17 17 17 17 17 17 17 17 17 17
11 11 11 11 11 11 11 11 11 11 12 12 12 13 14 14 15 15 16 17 17 17 17 17 17 17 16 16 16 16 16 17 17 17 17 17 17 17 17 17 17 17 17
10 10 10 10 10 10 10 11 11 11 11 11 12 12 13 13 14 15 15 16 16 17 17 17 17 17 16 16 16 16 16 16 16 17 17 17 17 17 17 17 17 17 17
9 9 9 9 9 10 10 10 10 11 11 11 11 12 12 13 13 14 15 15 16 16 16 17 16 16 16 16 15 15 15 16 16 16 16 17 17 17 17 17 17 16 16
8 8 8 8 9 9 9 10 10 10 10 10 11 11 11 12 12 13 14 14 15 15 16 16 16 16 15 15 15 14 14 15 15 16 16 16 16 16 16 16 16 16 16
8 8 8 8 8 8 9 9 9 10 10 10 10 10 11 11 12 12 13 13 14 15 15 15 15 15 15 15 14 13 13 14 14 15 15 15 16 16 16 16 16 16 16
8 8 8 8 8 8 8 9 9 9 10 10 10 10 10 11 11 11 12 12 13 14 14 14 14 14 14 14 14 13 13 13 13 14 14 14 15 15 15 15 15 15 15
8 8 8 7 7 8 8 8 9 9 9 9 10 10 10 10 11 11 11 12 12 13 13 14 14 14 14 13 13 13 13 12 12 13 13 13 14 14 14 14 15 15 15
8 7 7 7 7 7 8 8 8 9 9 9 9 9 10 10 10 10 11 11 12 12 12 13 13 14 14 14 13 13 12 12 11 12 12 12 12 13 13 14 14 14 14
7 7 7 7 7 7 7 7 8 8 8 8 9 9 9 10 10 10 11 11 11 11 12 12 13 13 13 14 14 13 13 12 12 12 12 11 11 12 13 13 13 13 13
7 7 7 7 7 7 7 7 7 7 8 8 9 9 9 9 10 10 10 10 11 11 11 12 12 13 13 13 14 14 13 12 12 12 11 11 11 12 12 12 12 12 12
7 7 7 7 7 7 7 7 7 7 7 8 8 8 9 9 10 10 10 10 10 10 11 11 12 12 12 13 13 13 12 12 11 11 11 11 11 11 11 11 11 12 12
7 7 7 7 7 7 7 7 7 7 7 7 8 8 8 9 9 9 10 10 10 10 10 11 11 11 12 12 12 13 13 12 12 11 11 11 11 11 10 10 11 11 11